Flag for Finland Weather past 2 weeks in Espoo, Finland

Now
30 °F

Scattered clouds.


Feels Like: 20 °F
Forecast: 27 / 33 °F
Wind: 13 mph from West

Location: Helsinki-Vantaa

Current Time: Dec 21, 2014 at 11:36:48 AM

Latest Report: Dec 21, 2014 at 11:20 AM


Visibility: N/A

Pressure: 29.36 "Hg

Humidity: 80%

Dew point: 25 °F

Location of EspooLocation

Historic Weather in Espoo — Graph

°F

Espoo temperature yesterday

Maximum temperature yesterday: 37 °F (at 12:20 AM)
Minimum temperature yesterday: 32 °F (at 5:50 PM)
Average temperature yesterday: 34 °F

Past Weeks' High & Low Weather Summary

 TemperatureHumidityPressure
High41 °F (Dec 7, 11:50 AM)100% (Dec 6, 11:50 AM)30.04 "Hg (Dec 6, 11:50 AM)
Low28 °F (Dec 14, 7:50 PM)70% (Dec 10, 7:50 PM)28.74 "Hg (Dec 13, 8:50 AM)
Average36 °F90%29.51 "Hg
* Reported Dec 6 10:20 AM — Dec 21 10:20 AM, Espoo, Weather by CustomWeather, © 2014

Note: Actual official high and low records may vary slightly from our data, if they occured in-between our weather recording intervals... More about our weather records

Advertising

Espoo weather history for previous 24 hours

 ConditionsComfort  
Time TempWeatherWind HumidityBarometerVisibility
10:20 AM
Dec 21
30 °FPassing clouds.12 mph80%29.33 "HgN/A
9:50 AM30 °FScattered clouds.14 mph80%29.33 "HgN/A
9:20 AM32 °FPassing clouds.16 mph75%29.33 "HgN/A
8:50 AM30 °FPartly cloudy.14 mph80%29.33 "HgN/A
8:20 AM30 °FClear.14 mph80%29.30 "Hg10 mi
7:50 AM30 °FPassing clouds.14 mph80%29.30 "HgN/A
7:20 AM30 °FPassing clouds.15 mph80%29.30 "HgN/A
6:50 AM30 °FPassing clouds.13 mph80%29.27 "HgN/A
6:20 AM32 °FPassing clouds.15 mph75%29.27 "HgN/A
5:50 AM32 °FPassing clouds.14 mph75%29.27 "HgN/A
5:20 AM32 °FLight snow. Passing clouds.10 mph80%29.27 "HgN/A
4:50 AM32 °FPassing clouds.13 mph80%29.27 "HgN/A
4:20 AM32 °FPassing clouds.13 mph80%29.24 "HgN/A
3:50 AM32 °FPassing clouds.13 mph80%29.24 "HgN/A
3:20 AM32 °FPassing clouds.13 mph80%29.24 "HgN/A
2:50 AM32 °FPassing clouds.12 mph80%29.24 "HgN/A
2:20 AM32 °FPartly cloudy.14 mph87%29.21 "HgN/A
1:50 AM32 °FLight snow. Partly cloudy.8 mph87%29.21 "HgN/A
1:20 AM34 °FLight snow. Partly cloudy.9 mph81%29.21 "HgN/A
12:50 AM34 °FLight snow. Partly cloudy.12 mph81%29.18 "Hg5 mi
12:20 AM32 °FLight snow. Passing clouds.10 mph93%29.18 "Hg4 mi
11:50 PM
Dec 20
34 °FLight snow. Partly cloudy.9 mph81%29.18 "HgN/A
11:20 PM34 °FLight snow. Partly cloudy.9 mph81%29.15 "HgN/A
10:50 PM32 °FPassing clouds.9 mph87%29.15 "HgN/A
10:20 PM32 °FPassing clouds.12 mph87%29.15 "HgN/A
9:50 PM32 °FPassing clouds.10 mph87%29.15 "HgN/A
9:20 PM32 °FPassing clouds.9 mph87%29.15 "HgN/A
8:50 PM32 °FPassing clouds.10 mph87%29.12 "HgN/A
8:20 PM32 °FPassing clouds.10 mph80%29.12 "HgN/A
7:20 PM32 °FPassing clouds.8 mph87%29.12 "HgN/A
6:50 PM32 °FPassing clouds.8 mph87%29.12 "HgN/A
6:20 PM32 °FPassing clouds.8 mph87%29.09 "HgN/A
5:50 PM32 °FPassing clouds.7 mph87%29.09 "HgN/A
5:20 PM34 °FPassing clouds.8 mph81%29.06 "HgN/A
4:50 PM34 °FPassing clouds.5 mph81%29.06 "HgN/A
4:20 PM34 °FPassing clouds.5 mph81%29.06 "HgN/A
3:50 PM34 °FPassing clouds.7 mph75%29.06 "HgN/A
3:20 PM34 °FPassing clouds.7 mph75%29.06 "HgN/A
2:50 PM34 °FPartly sunny.9 mph75%29.06 "HgN/A
2:20 PM36 °FPartly sunny.9 mph75%29.06 "HgN/A
1:50 PM36 °FPartly sunny.9 mph75%29.06 "HgN/A
1:20 PM36 °FPartly sunny.8 mph75%29.06 "HgN/A
12:50 PM36 °FPartly sunny.9 mph75%29.06 "HgN/A
12:20 PM36 °FPartly sunny.9 mph75%29.03 "HgN/A
11:50 AM36 °FPartly sunny.10 mph81%29.03 "HgN/A
11:20 AM34 °FPartly sunny.9 mph87%29.03 "HgN/A
Weather by CustomWeather, © 2014

See weather overviewHow to use our weather pages